QPF
0.00 0.00 0.00 0.00 0.00 0.00 0.00 0.01 0.01 0.01 0.00 0.00 0.01 0.01 0.01 0.02 0.01 0.01 0.01 0.00 0.00 0.01
0.00 0.00 0.00 0.00 0.00 0.00 0.01 0.02 0.02 0.01 0.01 0.01 0.02 0.01 0.01 0.02 0.03 0.03 0.03 0.02 0.02 0.02
0.00 0.00 0.00 0.00 0.00 0.00 0.03 0.06 0.05 0.02 0.01 0.01 0.02 0.01 0.02 0.02 0.03 0.05 0.05 0.04 0.02 0.02
0.00 0.00 0.00 0.00 0.00 0.00 0.02 0.04 0.04 0.03 0.02 0.03 0.02 0.03 0.02 0.03 0.03 0.04 0.04 0.04 0.04 0.03
0.00 0.00 0.00 0.00 0.00 0.00 0.00 0.00 0.01 0.02 0.02 0.02 0.03 0.03 0.02 0.03 0.03 0.04 0.04 0.04 0.03 0.03
0.00 0.00 0.00 0.00 0.00 0.00 0.00 0.00 0.00 0.00 0.00 0.00 0.01 0.02 0.02 0.03 0.03 0.04 0.05 0.04 0.05 0.05
0.00 0.00 0.00 0.00 0.00 0.00 0.00 0.00 0.00 0.00 0.00 0.00 0.00 0.00 0.00 0.00 0.02 0.04 0.06 0.08 0.07 0.10
0.00 0.00 0.00 0.00 0.00 0.00 0.00 0.00 0.00 0.00 0.00 0.00 0.00 0.00 0.00 0.00 0.00 0.00 0.00 0.01 0.01 0.03
0.00 0.00 0.00 0.00 0.00 0.00 0.00 0.00 0.00 0.00 0.00 0.00 0.00 0.00 0.00 0.00 0.00 0.00 0.00 0.00 0.00 0.00
0.00 0.00 0.00 0.00 0.00 0.00 0.00 0.00 0.00 0.00 0.00 0.00 0.00 0.00 0.00 0.00 0.00 0.00 0.00 0.00 0.00 0.00
0.00 0.00 0.00 0.00 0.00 0.00 0.00 0.00 0.00 0.00 0.00 0.00 0.00 0.00 0.00 0.00 0.00 0.00 0.00 0.00 0.00 0.00
0.00 0.00 0.00 0.00 0.00 0.00 0.00 0.00 0.00 0.00 0.00 0.00 0.00 0.00 0.00 0.00 0.00 0.00 0.00 0.00 0.00 0.00
0.00 0.00 0.00 0.00 0.00 0.00 0.00 0.00 0.00 0.00 0.00 0.00 0.00 0.00 0.00 0.00 0.00 0.00 0.00 0.00 0.00 0.00
0.00 0.00 0.00 0.00 0.00 0.00 0.00 0.00 0.00 0.00 0.00 0.00 0.00 0.00 0.00 0.00 0.00 0.00 0.00 0.00 0.00 0.00
MSLP
1025.14 1024.86 1024.66 1024.44 1024.38 1024.09 1023.53 1022.72 1022.03 1021.22 1020.57 1019.76 1018.84 1018.05 1017.11 1016.16 1015.46 1014.45 1013.43 1013.03 1012.88 1012.63
1025.62 1025.18 1024.98 1024.68 1024.75 1024.38 1023.78 1022.94 1022.36 1021.62 1020.83 1019.95 1018.99 1018.22 1017.35 1016.63 1015.73 1014.52 1013.19 1012.97 1012.46 1012.03
1025.95 1025.65 1025.21 1025.03 1024.87 1024.43 1023.81 1023.27 1022.58 1021.98 1021.37 1020.53 1019.59 1018.83 1017.97 1017.32 1016.57 1015.64 1014.93 1014.30 1013.58 1013.01
1026.23 1025.95 1025.58 1025.26 1025.01 1024.65 1024.05 1023.36 1023.00 1022.46 1021.94 1021.22 1020.47 1019.79 1018.95 1018.22 1017.60 1016.84 1016.21 1015.33 1014.71 1014.10
1026.44 1026.27 1025.90 1025.55 1025.26 1024.93 1024.59 1024.04 1023.66 1023.09 1022.40 1021.84 1021.32 1020.75 1020.08 1019.49 1018.77 1018.11 1017.34 1016.59 1015.54 1014.97
1026.65 1026.59 1026.21 1025.88 1025.65 1025.35 1025.12 1024.72 1024.32 1023.73 1023.13 1022.55 1022.11 1021.69 1021.27 1020.79 1020.16 1019.48 1018.81 1018.02 1016.98 1016.09
1026.91 1026.82 1026.51 1026.22 1026.08 1025.84 1025.72 1025.39 1024.96 1024.46 1023.86 1023.24 1022.82 1022.59 1022.33 1021.81 1021.22 1020.68 1020.16 1019.48 1018.56 1017.58
1027.19 1027.05 1026.69 1026.54 1026.54 1026.24 1026.30 1026.21 1025.80 1025.27 1024.54 1023.90 1023.24 1023.27 1023.15 1022.74 1022.26 1021.75 1021.25 1020.69 1019.90 1019.13
1027.46 1027.22 1026.92 1026.92 1027.02 1026.80 1026.79 1026.82 1026.61 1025.99 1025.41 1024.68 1023.99 1023.75 1023.90 1023.72 1023.32 1022.85 1022.32 1021.88 1021.22 1020.47
1027.51 1027.38 1027.20 1027.25 1027.32 1027.20 1027.23 1027.16 1027.14 1026.76 1026.16 1025.46 1024.86 1024.30 1024.39 1024.61 1024.43 1024.01 1023.57 1023.01 1022.39 1021.64
1027.37 1027.41 1027.38 1027.32 1027.36 1027.46 1027.58 1027.57 1027.58 1027.37 1026.83 1026.24 1025.62 1025.25 1025.14 1025.37 1025.66 1024.97 1024.41 1023.96 1023.43 1022.82
1027.20 1027.37 1027.40 1027.49 1027.41 1027.36 1027.66 1027.88 1027.77 1027.85 1027.41 1026.82 1026.28 1025.84 1025.84 1026.07 1026.05 1025.72 1025.27 1024.77 1023.97 1023.85
1026.89 1027.06 1027.25 1027.20 1027.20 1027.19 1027.36 1027.81 1027.87 1027.99 1027.81 1027.40 1026.95 1026.22 1026.00 1026.40 1026.31 1026.11 1025.85 1025.48 1025.15 1024.14
1026.71 1026.89 1026.96 1027.07 1027.04 1027.06 1027.17 1027.58 1027.91 1028.20 1028.22 1028.11 1027.67 1027.28 1026.48 1026.35 1026.46 1026.43 1026.33 1026.07 1025.66 1025.21
Thickness
5422 5418 5411 5403 5392 5381 5376 5375 5377 5383 5386 5390 5395 5398 5403 5409 5413 5422 5433 5440 5445 5450
5411 5409 5401 5394 5382 5371 5368 5369 5371 5375 5379 5383 5388 5391 5395 5398 5404 5413 5426 5431 5438 5444
5403 5399 5394 5386 5376 5371 5368 5366 5368 5370 5373 5377 5381 5384 5387 5390 5394 5401 5406 5411 5418 5425
5395 5391 5387 5382 5377 5372 5369 5367 5366 5366 5367 5370 5373 5376 5379 5382 5385 5389 5392 5397 5401 5408
5390 5385 5382 5380 5377 5371 5368 5365 5362 5362 5364 5365 5365 5366 5369 5372 5375 5378 5381 5386 5393 5398
5384 5380 5380 5377 5376 5371 5368 5365 5361 5360 5360 5361 5360 5360 5360 5362 5365 5368 5371 5375 5382 5390
5378 5376 5375 5374 5372 5370 5367 5365 5363 5361 5361 5360 5358 5355 5353 5354 5358 5360 5362 5366 5372 5379
5372 5372 5373 5371 5368 5367 5364 5361 5360 5360 5360 5360 5360 5356 5351 5351 5352 5354 5356 5359 5364 5369
5366 5366 5368 5367 5365 5363 5360 5358 5356 5356 5356 5356 5358 5355 5351 5350 5350 5351 5352 5352 5356 5361
5360 5361 5361 5362 5360 5358 5355 5354 5351 5351 5352 5353 5354 5353 5350 5346 5346 5346 5347 5349 5351 5356
5356 5356 5356 5356 5355 5353 5351 5348 5346 5345 5346 5348 5349 5349 5347 5344 5342 5343 5344 5344 5347 5350
5352 5351 5351 5350 5351 5350 5347 5344 5342 5340 5340 5342 5344 5344 5343 5341 5340 5339 5339 5341 5344 5344
5350 5349 5348 5347 5347 5347 5346 5340 5339 5335 5335 5337 5336 5339 5339 5336 5336 5335 5335 5337 5338 5341
5345 5344 5343 5343 5344 5343 5342 5338 5334 5330 5328 5328 5328 5329 5332 5331 5329 5327 5328 5328 5329 5331